ITUPSAT1

Last updated on Sun Apr 12 2026 00:03:15 GMT+0000 (Coordinated Universal Time)

1 35935U 09051E 26101.16094753 .00000664 00000+0 14733-3 0 9991 2 35935 98.4089 6.9129 0008779 86.6102 273.6102 14.60339174878952
UTC large
Height (km)
Speed (km/s)
/
Latitude / Longitude
Inclination (degrees)
Orbital Period (minutes)
Azimuth
Elevation
Range (km)
Doppler Factor

Next 0 passes for location: London (51.5072 / 0.1276)

Sorry there are no passes over London.
ITUPSAT1